Location: Anaheim Mobile Home Estates
(33.8153°N, 117.9967°W)
Time: 17:05:52
(UTC+00:00)

Meteor 1-16 Rocket - Pass Details

Date: 05 August 2024
Orbit: 789 x 906 km, 81.2° (Epoch: 07 September)

Event Time Altitude Azimuth Distance (km) Brightness Sun altitude
Rises 12:17:08 0° 190° (S) 3,510 7.0 -10.3°
Reaches altitude 10° 12:19:36 10° 191° (SSW) 2,565 6.3 -9.8°
Maximum altitude 12:25:28 78° 278° (W) 908 4.3 -8.8°
Drops below altitude 10° 12:31:13 10° 5° (N) 2,518 7.1 -7.7°
Sets 12:33:38 0° 7° (N) 3,442 7.9 -7.2°
